Time,TemperatureF,DewpointF,PressureIn,WindDirection,WindDirectionDegrees,WindSpeedMPH,WindSpeedGustMPH,Humidity,HourlyPrecipIn,Conditions,Clouds,dailyrainin,SoftwareType,DateUTC
2013-08-20 00:08:00,66.8,63.0,30.06,SSE,163,0.0,0.0,88,0.00,,,0.00,weatherlink.com 1.10,2013-08-20 05:08:00,
2013-08-20 00:23:00,66.5,63.0,30.06,SSE,163,0.0,1.0,89,0.00,,,0.00,weatherlink.com 1.10,2013-08-20 05:23:00,
2013-08-20 00:38:00,66.4,63.0,30.06,South,173,1.0,2.0,89,0.00,,,0.00,weatherlink.com 1.10,2013-08-20 05:38:00,
2013-08-20 00:53:00,66.2,63.0,30.06,SSE,166,0.0,0.0,89,0.00,,,0.00,weatherlink.com 1.10,2013-08-20 05:53:00,
2013-08-20 01:08:00,66.1,63.0,30.06,South,173,1.0,2.0,90,0.00,,,0.00,weatherlink.com 1.10,2013-08-20 06:08:00,
2013-08-20 01:23:00,66.1,63.0,30.06,SSE,165,1.0,3.0,90,0.00,,,0.00,weatherlink.com 1.10,2013-08-20 06:23:00,
2013-08-20 01:38:00,65.9,63.0,30.06,South,172,2.0,3.0,90,0.00,,,0.00,weatherlink.com 1.10,2013-08-20 06:38:00,
2013-08-20 01:53:00,65.7,63.0,30.06,SSE,163,1.0,3.0,90,0.00,,,0.00,weatherlink.com 1.10,2013-08-20 06:53:00,
2013-08-20 02:08:00,65.5,63.0,30.05,South,175,1.0,3.0,90,0.00,,,0.00,weatherlink.com 1.10,2013-08-20 07:08:00,
2013-08-20 02:23:00,65.0,62.0,30.05,South,175,2.0,3.0,91,0.00,,,0.00,weatherlink.com 1.10,2013-08-20 07:23:00,
2013-08-20 02:38:00,64.7,62.0,30.06,South,175,0.0,0.0,92,0.00,,,0.00,weatherlink.com 1.10,2013-08-20 07:38:00,
2013-08-20 02:53:00,64.7,62.0,30.06,South,175,0.0,0.0,92,0.00,,,0.00,weatherlink.com 1.10,2013-08-20 07:53:00,
2013-08-20 03:08:00,64.3,62.0,30.06,South,175,1.0,2.0,92,0.00,,,0.00,weatherlink.com 1.10,2013-08-20 08:08:00,
2013-08-20 03:23:00,64.2,62.0,30.06,South,175,0.0,2.0,93,0.00,,,0.00,weatherlink.com 1.10,2013-08-20 08:23:00,
2013-08-20 03:38:00,64.3,62.0,30.06,South,175,0.0,0.0,93,0.00,,,0.00,weatherlink.com 1.10,2013-08-20 08:38:00,
2013-08-20 03:53:00,64.3,62.0,30.06,South,175,0.0,0.0,93,0.00,,,0.00,weatherlink.com 1.10,2013-08-20 08:53:00,
2013-08-20 04:08:00,64.4,62.0,30.06,South,175,0.0,0.0,93,0.00,,,0.00,weatherlink.com 1.10,2013-08-20 09:08:00,
2013-08-20 04:23:00,64.2,62.0,30.06,South,175,0.0,0.0,93,0.00,,,0.00,weatherlink.com 1.10,2013-08-20 09:23:00,
2013-08-20 04:38:00,64.0,62.0,30.06,South,175,1.0,2.0,93,0.00,,,0.00,weatherlink.com 1.10,2013-08-20 09:38:00,
2013-08-20 04:53:00,63.9,62.0,30.06,South,175,0.0,2.0,93,0.00,,,0.00,weatherlink.com 1.10,2013-08-20 09:53:00,
2013-08-20 05:08:00,63.8,62.0,30.07,South,175,0.0,0.0,93,0.00,,,0.00,weatherlink.com 1.10,2013-08-20 10:08:00,
2013-08-20 05:23:00,63.8,62.0,30.07,South,171,1.0,2.0,93,0.00,,,0.00,weatherlink.com 1.10,2013-08-20 10:23:00,
2013-08-20 05:38:00,63.7,62.0,30.07,South,169,1.0,1.0,93,0.00,,,0.00,weatherlink.com 1.10,2013-08-20 10:38:00,
2013-08-20 05:53:00,63.6,62.0,30.08,SSE,166,0.0,0.0,93,0.00,,,0.00,weatherlink.com 1.10,2013-08-20 10:53:00,
2013-08-20 06:08:00,63.4,62.0,30.08,SSE,166,0.0,0.0,94,0.00,,,0.00,weatherlink.com 1.10,2013-08-20 11:08:00,
2013-08-20 06:23:00,63.4,62.0,30.09,SSE,166,0.0,0.0,94,0.00,,,0.00,weatherlink.com 1.10,2013-08-20 11:23:00,
2013-08-20 06:38:00,63.4,62.0,30.09,SSE,166,0.0,0.0,94,0.00,,,0.00,weatherlink.com 1.10,2013-08-20 11:38:00,
2013-08-20 06:53:00,63.1,61.0,30.09,SSE,166,0.0,0.0,94,0.00,,,0.00,weatherlink.com 1.10,2013-08-20 11:53:00,
2013-08-20 07:08:00,63.4,62.0,30.09,SSE,168,1.0,3.0,94,0.00,,,0.00,weatherlink.com 1.10,2013-08-20 12:08:00,
2013-08-20 07:23:00,63.8,62.0,30.10,SSE,167,0.0,2.0,94,0.00,,,0.00,weatherlink.com 1.10,2013-08-20 12:23:00,
2013-08-20 07:38:00,64.4,63.0,30.10,SSE,167,0.0,2.0,95,0.00,,,0.00,weatherlink.com 1.10,2013-08-20 12:38:00,
2013-08-20 07:53:00,65.0,63.0,30.10,South,173,1.0,3.0,94,0.00,,,0.00,weatherlink.com 1.10,2013-08-20 12:53:00,
2013-08-20 08:08:00,65.5,64.0,30.11,South,180,2.0,4.0,94,0.00,,,0.00,weatherlink.com 1.10,2013-08-20 13:08:00,
2013-08-20 08:23:00,66.3,64.0,30.11,South,181,1.0,4.0,93,0.00,,,0.00,weatherlink.com 1.10,2013-08-20 13:23:00,
2013-08-20 08:38:00,67.4,65.0,30.11,South,174,2.0,4.0,91,0.00,,,0.00,weatherlink.com 1.10,2013-08-20 13:38:00,
2013-08-20 08:53:00,68.5,65.0,30.11,SSW,202,3.0,5.0,89,0.00,,,0.00,weatherlink.com 1.10,2013-08-20 13:53:00,
2013-08-20 09:08:00,69.8,66.0,30.11,SSW,206,2.0,5.0,87,0.00,,,0.00,weatherlink.com 1.10,2013-08-20 14:08:00,
2013-08-20 09:23:00,71.1,66.0,30.11,SSW,193,3.0,5.0,85,0.00,,,0.00,weatherlink.com 1.10,2013-08-20 14:23:00,
2013-08-20 09:38:00,72.2,66.0,30.11,SSW,196,2.0,5.0,82,0.00,,,0.00,weatherlink.com 1.10,2013-08-20 14:38:00,
2013-08-20 09:54:00,73.4,67.0,30.11,SSE,168,2.0,5.0,80,0.00,,,0.00,weatherlink.com 1.10,2013-08-20 14:54:00,
2013-08-20 10:09:00,74.4,67.0,30.10,SSW,194,2.0,5.0,78,0.00,,,0.00,weatherlink.com 1.10,2013-08-20 15:09:00,
2013-08-20 10:24:00,75.7,68.0,30.10,SW,230,3.0,6.0,76,0.00,,,0.00,weatherlink.com 1.10,2013-08-20 15:24:00,
2013-08-20 10:39:00,76.8,68.0,30.10,SSW,205,3.0,4.0,75,0.00,,,0.00,weatherlink.com 1.10,2013-08-20 15:39:00,
2013-08-20 10:54:00,78.0,69.0,30.10,SSE,167,1.0,5.0,73,0.00,,,0.00,weatherlink.com 1.10,2013-08-20 15:54:00,
2013-08-20 11:09:00,78.8,68.0,30.10,South,182,2.0,6.0,70,0.00,,,0.00,weatherlink.com 1.10,2013-08-20 16:09:00,
2013-08-20 11:24:00,79.2,68.0,30.10,SW,228,6.0,7.0,69,0.00,,,0.00,weatherlink.com 1.10,2013-08-20 16:24:00,
2013-08-20 11:39:00,79.5,68.0,30.09,SSW,202,3.0,7.0,67,0.00,,,0.00,weatherlink.com 1.10,2013-08-20 16:39:00,
2013-08-20 11:54:00,80.0,69.0,30.09,South,186,2.0,7.0,68,0.00,,,0.00,weatherlink.com 1.10,2013-08-20 16:54:00,
2013-08-20 12:09:00,80.5,68.0,30.09,SSW,211,3.0,9.0,65,0.00,,,0.00,weatherlink.com 1.10,2013-08-20 17:09:00,
2013-08-20 12:24:00,80.8,67.0,30.08,SSW,205,4.0,8.0,64,0.00,,,0.00,weatherlink.com 1.10,2013-08-20 17:24:00,
2013-08-20 12:39:00,80.6,65.0,30.08,SSW,209,3.0,10.0,60,0.00,,,0.00,weatherlink.com 1.10,2013-08-20 17:39:00,
2013-08-20 12:54:00,80.8,66.0,30.07,SSW,210,4.0,9.0,61,0.00,,,0.00,weatherlink.com 1.10,2013-08-20 17:54:00,
2013-08-20 13:09:00,80.9,66.0,30.07,SSW,200,3.0,7.0,61,0.00,,,0.00,weatherlink.com 1.10,2013-08-20 18:09:00,
2013-08-20 13:24:00,81.1,64.0,30.07,SSW,195,5.0,12.0,56,0.00,,,0.00,weatherlink.com 1.10,2013-08-20 18:24:00,
2013-08-20 13:39:00,81.6,65.0,30.07,SW,236,4.0,14.0,57,0.00,,,0.00,weatherlink.com 1.10,2013-08-20 18:39:00,
2013-08-20 13:54:00,81.8,67.0,30.07,SW,226,2.0,8.0,61,0.00,,,0.00,weatherlink.com 1.10,2013-08-20 18:54:00,
2013-08-20 14:09:00,82.0,65.0,30.06,SSW,197,1.0,9.0,57,0.00,,,0.00,weatherlink.com 1.10,2013-08-20 19:09:00,
2013-08-20 14:24:00,82.0,65.0,30.06,SW,225,6.0,9.0,56,0.00,,,0.00,weatherlink.com 1.10,2013-08-20 19:24:00,
2013-08-20 14:39:00,82.5,66.0,30.06,SSW,193,5.0,11.0,57,0.00,,,0.00,weatherlink.com 1.10,2013-08-20 19:39:00,
2013-08-20 14:54:00,83.0,66.0,30.05,SW,232,5.0,7.0,57,0.00,,,0.00,weatherlink.com 1.10,2013-08-20 19:54:00,
2013-08-20 15:09:00,82.8,65.0,30.05,SSW,197,2.0,11.0,55,0.00,,,0.00,weatherlink.com 1.10,2013-08-20 20:09:00,
2013-08-20 15:24:00,82.7,65.0,30.05,SSW,211,3.0,8.0,55,0.00,,,0.00,weatherlink.com 1.10,2013-08-20 20:24:00,
2013-08-20 15:39:00,82.9,66.0,30.04,SSE,165,5.0,9.0,56,0.00,,,0.00,weatherlink.com 1.10,2013-08-20 20:39:00,
2013-08-20 15:54:00,83.0,65.0,30.04,SSW,206,3.0,7.0,54,0.00,,,0.00,weatherlink.com 1.10,2013-08-20 20:54:00,
2013-08-20 16:09:00,82.7,65.0,30.04,SW,221,4.0,8.0,56,0.00,,,0.00,weatherlink.com 1.10,2013-08-20 21:09:00,
2013-08-20 16:24:00,82.3,65.0,30.04,SSW,202,4.0,9.0,56,0.00,,,0.00,weatherlink.com 1.10,2013-08-20 21:24:00,
2013-08-20 16:39:00,82.2,65.0,30.04,SSW,194,4.0,8.0,56,0.00,,,0.00,weatherlink.com 1.10,2013-08-20 21:39:00,
2013-08-20 16:54:00,82.3,65.0,30.04,SSW,213,3.0,7.0,56,0.00,,,0.00,weatherlink.com 1.10,2013-08-20 21:54:00,
2013-08-20 17:09:00,82.2,65.0,30.04,SSW,193,4.0,7.0,56,0.00,,,0.00,weatherlink.com 1.10,2013-08-20 22:09:00,
2013-08-20 17:24:00,81.8,65.0,30.04,SSW,193,4.0,6.0,57,0.00,,,0.00,weatherlink.com 1.10,2013-08-20 22:24:00,
2013-08-20 17:39:00,81.6,64.0,30.03,South,186,3.0,7.0,56,0.00,,,0.00,weatherlink.com 1.10,2013-08-20 22:39:00,
2013-08-20 17:54:00,81.3,65.0,30.03,SSW,210,3.0,5.0,58,0.00,,,0.00,weatherlink.com 1.10,2013-08-20 22:54:00,
2013-08-20 18:09:00,80.9,65.0,30.03,South,170,3.0,8.0,59,0.00,,,0.00,weatherlink.com 1.10,2013-08-20 23:09:00,
2013-08-20 18:24:00,80.5,65.0,30.03,SSW,193,2.0,7.0,60,0.00,,,0.00,weatherlink.com 1.10,2013-08-20 23:24:00,
2013-08-20 18:39:00,80.1,66.0,30.03,South,186,1.0,4.0,62,0.00,,,0.00,weatherlink.com 1.10,2013-08-20 23:39:00,
2013-08-20 18:54:00,79.3,66.0,30.03,South,188,1.0,5.0,63,0.00,,,0.00,weatherlink.com 1.10,2013-08-20 23:54:00,
2013-08-20 19:09:00,78.5,66.0,30.02,South,173,1.0,3.0,65,0.00,,,0.00,weatherlink.com 1.10,2013-08-21 00:09:00,
2013-08-20 19:24:00,77.5,66.0,30.02,SSE,156,2.0,3.0,67,0.00,,,0.00,weatherlink.com 1.10,2013-08-21 00:24:00,
2013-08-20 19:39:00,76.8,65.0,30.02,SSE,167,1.0,3.0,68,0.00,,,0.00,weatherlink.com 1.10,2013-08-21 00:39:00,
2013-08-20 19:54:00,75.9,65.0,30.03,SSE,165,1.0,2.0,70,0.00,,,0.00,weatherlink.com 1.10,2013-08-21 00:54:00,
2013-08-20 20:09:00,74.9,66.0,30.03,South,175,0.0,3.0,73,0.00,,,0.00,weatherlink.com 1.10,2013-08-21 01:09:00,
2013-08-20 20:24:00,74.3,66.0,30.03,SSE,163,2.0,3.0,74,0.00,,,0.00,weatherlink.com 1.10,2013-08-21 01:24:00,
2013-08-20 20:39:00,73.8,66.0,30.04,South,173,2.0,3.0,77,0.00,,,0.00,weatherlink.com 1.10,2013-08-21 01:39:00,
2013-08-20 20:54:00,73.1,66.0,30.04,South,174,1.0,2.0,79,0.00,,,0.00,weatherlink.com 1.10,2013-08-21 01:54:00,
2013-08-20 21:09:00,72.8,66.0,30.04,South,169,1.0,3.0,80,0.00,,,0.00,weatherlink.com 1.10,2013-08-21 02:09:00,
2013-08-20 21:24:00,72.5,66.0,30.05,SSE,167,1.0,3.0,81,0.00,,,0.00,weatherlink.com 1.10,2013-08-21 02:24:00,
2013-08-20 21:40:00,72.0,66.0,30.05,South,180,2.0,3.0,81,0.00,,,0.00,weatherlink.com 1.10,2013-08-21 02:40:00,
2013-08-20 21:54:00,71.5,66.0,30.05,South,178,3.0,4.0,82,0.00,,,0.00,weatherlink.com 1.10,2013-08-21 02:54:00,
2013-08-20 22:10:00,71.5,66.0,30.05,South,175,2.0,4.0,82,0.00,,,0.00,weatherlink.com 1.10,2013-08-21 03:10:00,
2013-08-20 22:25:00,71.2,66.0,30.05,South,180,2.0,4.0,83,0.00,,,0.00,weatherlink.com 1.10,2013-08-21 03:25:00,
2013-08-20 22:40:00,71.2,66.0,30.05,South,184,3.0,5.0,82,0.00,,,0.00,weatherlink.com 1.10,2013-08-21 03:40:00,
2013-08-20 22:55:00,70.9,66.0,30.05,SSE,166,2.0,4.0,83,0.00,,,0.00,weatherlink.com 1.10,2013-08-21 03:55:00,
2013-08-20 23:10:00,70.4,65.0,30.05,South,182,3.0,4.0,84,0.00,,,0.00,weatherlink.com 1.10,2013-08-21 04:10:00,
2013-08-20 23:25:00,70.1,65.0,30.05,South,185,2.0,4.0,84,0.00,,,0.00,weatherlink.com 1.10,2013-08-21 04:25:00,
2013-08-20 23:40:00,69.8,65.0,30.05,South,184,3.0,4.0,85,0.00,,,0.00,weatherlink.com 1.10,2013-08-21 04:40:00,
2013-08-20 23:55:00,69.4,65.0,30.05,South,181,3.0,4.0,86,0.00,,,0.00,weatherlink.com 1.10,2013-08-21 04:55:00,